Satellite-Ground Cal/Val Region Overpasses Predictions

Prediction of Satellite NPP Overpassing Cal/Val Region: PacNW

Region Location: (Latitude: 10.00, Longitude: 139.50) to (Latitude: 22.70, Longitude: 165.60).

Table of predicted overpasses for the next 14.0 days since TLE Epoch: 9/11/2021
Interval Starting Time Starting Location Ending Time Ending Location
1 09/11/2021 03:24:28 ( 10.04, 148.64) 09/11/2021 03:28:03 ( 22.66, 145.63)
2 09/11/2021 15:56:20 ( 22.69, 145.89) 09/11/2021 15:59:56 ( 10.01, 142.87)
3 09/12/2021 03:05:26 ( 10.03, 153.40) 09/12/2021 03:09:01 ( 22.66, 150.39)
4 09/12/2021 15:37:19 ( 22.69, 150.64) 09/12/2021 15:40:55 ( 10.01, 147.62)
5 09/13/2021 02:46:25 ( 10.04, 158.15) 09/13/2021 02:50:00 ( 22.66, 155.15)
6 09/13/2021 15:18:17 ( 22.69, 155.40) 09/13/2021 15:21:53 ( 10.01, 152.38)
7 09/14/2021 02:27:23 ( 10.04, 162.91) 09/14/2021 02:30:58 ( 22.66, 159.91)
8 09/14/2021 14:59:16 ( 22.68, 160.16) 09/14/2021 15:02:52 ( 10.01, 157.14)
9 09/15/2021 02:10:53 ( 18.91, 165.59) 09/15/2021 02:11:57 ( 22.66, 164.66)
10 09/15/2021 03:49:52 ( 10.04, 142.29) 09/15/2021 03:53:12 ( 21.79, 139.51)
11 09/15/2021 14:40:15 ( 22.68, 164.91) 09/15/2021 14:43:51 ( 10.01, 161.90)
12 09/15/2021 16:21:44 ( 22.68, 139.54) 09/15/2021 16:21:46 ( 22.56, 139.51)
13 09/16/2021 03:30:50 ( 10.04, 147.05) 09/16/2021 03:34:25 ( 22.67, 144.04)
14 09/16/2021 16:02:43 ( 22.68, 144.30) 09/16/2021 16:06:18 ( 10.06, 141.29)
15 09/17/2021 03:11:49 ( 10.05, 151.81) 09/17/2021 03:15:24 ( 22.67, 148.80)
16 09/17/2021 15:43:42 ( 22.68, 149.05) 09/17/2021 15:47:17 ( 10.06, 146.05)
17 09/18/2021 02:52:47 ( 10.05, 156.56) 09/18/2021 02:56:22 ( 22.67, 153.56)
18 09/18/2021 15:24:40 ( 22.67, 153.81) 09/18/2021 15:28:15 ( 10.05, 150.80)
19 09/19/2021 02:33:46 ( 10.05, 161.32) 09/19/2021 02:37:21 ( 22.68, 158.31)
20 09/19/2021 15:05:39 ( 22.67, 158.57) 09/19/2021 15:09:14 ( 10.05, 155.56)
21 09/20/2021 02:15:20 ( 12.17, 165.59) 09/20/2021 02:18:19 ( 22.68, 163.07)
22 09/20/2021 03:56:13 ( 10.00, 140.71) 09/20/2021 03:57:42 ( 15.23, 139.50)
23 09/20/2021 14:46:37 ( 22.67, 163.32) 09/20/2021 14:50:12 ( 10.05, 160.32)
24 09/21/2021 03:37:12 ( 10.01, 145.47) 09/21/2021 03:40:48 ( 22.69, 142.45)
25 09/21/2021 14:30:33 ( 12.28, 165.59) 09/21/2021 14:31:11 ( 10.05, 165.08)
26 09/21/2021 16:09:06 ( 22.66, 142.70) 09/21/2021 16:12:41 ( 10.04, 139.70)
27 09/22/2021 03:18:10 ( 10.01, 150.23) 09/22/2021 03:21:46 ( 22.69, 147.21)
28 09/22/2021 15:50:04 ( 22.66, 147.46) 09/22/2021 15:53:39 ( 10.04, 144.46)
29 09/23/2021 02:59:09 ( 10.02, 154.98) 09/23/2021 03:02:45 ( 22.70, 151.96)
30 09/23/2021 15:31:03 ( 22.65, 152.22) 09/23/2021 15:34:38 ( 10.03, 149.21)
31 09/24/2021 02:40:08 ( 10.02, 159.74) 09/24/2021 02:43:43 ( 22.64, 156.74)
